Washington County, Wisconsin, United States
Lat: 43.37N, Lon: 88.22W
Wx Zone: WIZ059
Local Info
Past Weather Observations for Today

NOTE: This archive is for the closest National Weather Service station to Washington County. Information may differ from the station used for current weather conditions.

Click here for Long-term Archive

Time Weather Temperature Dewpoint Humidity Pressure Winds Precip Visibility
14:50
Partly Cloudy
61°F / 16°C 32°F / 0°C 34% 30.04 in
(1017 mb)
NE 6.9 mph
(NE 11 kph)
- 10SM
14:30
Partly Cloudy
59°F / 15°C 32°F / 0°C 36% 30.04 in
(1017 mb)
E 11.5 mph
(E 19 kph)
- 10SM
14:10
Partly Cloudy
59°F / 15°C 32°F / 0°C 36% 30.04 in
(1017 mb)
NE 6.9 mph
(NE 11 kph)
- 10SM
13:50
Overcast
59°F / 15°C 32°F / 0°C 36% 30.04 in
(1017 mb)
NE 12.7 mph
(NE 20 kph)
- 10SM
13:30
Overcast
59°F / 15°C 34°F / 1°C 39% 30.06 in
(1018 mb)
ENE 13.8 mph
(ENE 22 kph)
- 10SM
13:10
Overcast
59°F / 15°C 34°F / 1°C 39% 30.06 in
(1018 mb)
ENE 11.5 mph
(ENE 19 kph)
- 10SM
12:50
Mostly Cloudy
57°F / 14°C 32°F / 0°C 39% 30.06 in
(1018 mb)
ENE 4.6 mph
(ENE 7 kph)
- 10SM
12:30
Mostly Cloudy
61°F / 16°C 32°F / 0°C 34% 30.06 in
(1018 mb)
ENE 11.5 mph
(ENE 19 kph)
- 10SM
12:10
Overcast
59°F / 15°C 34°F / 1°C 39% 30.06 in
(1018 mb)
NE 10.4 mph
(NE 17 kph)
- 10SM
11:50
Overcast
59°F / 15°C 32°F / 0°C 36% 30.06 in
(1018 mb)
ENE 11.5 mph
(ENE 19 kph)
- 10SM
11:30
Overcast
57°F / 14°C 34°F / 1°C 41% 30.06 in
(1018 mb)
NE 8.1 mph
(NE 13 kph)
- 10SM
11:10
Overcast
59°F / 15°C 34°F / 1°C 39% 30.06 in
(1018 mb)
NE 10.4 mph
(NE 17 kph)
- 10SM
10:50
Mostly Cloudy
59°F / 15°C 36°F / 2°C 42% 30.06 in
(1018 mb)
NE 11.5 mph
(NE 19 kph)
- 10SM
10:30
Partly Cloudy
57°F / 14°C 32°F / 0°C 39% 30.06 in
(1018 mb)
N 3.5 mph
(N 6 kph)
- 10SM
10:10
Clear
55°F / 13°C 32°F / 0°C 41% 30.09 in
(1019 mb)
NE 5.8 mph
(NE 9 kph)
- 10SM
09:50
Clear
55°F / 13°C 34°F / 1°C 44% 30.09 in
(1019 mb)
NE 6.9 mph
(NE 11 kph)
- 10SM
09:30
Clear
55°F / 13°C 32°F / 0°C 41% 30.09 in
(1019 mb)
ENE 11.5 mph
(ENE 19 kph)
- 10SM
09:10
Clear
55°F / 13°C 32°F / 0°C 41% 30.09 in
(1019 mb)
N 8.1 mph
(N 13 kph)
- 10SM
08:50
Clear
54°F / 12°C 34°F / 1°C 47% 30.09 in
(1019 mb)
NE 9.2 mph
(NE 15 kph)
- 10SM
08:30
Clear
54°F / 12°C 34°F / 1°C 47% 30.09 in
(1019 mb)
NE 9.2 mph
(NE 15 kph)
- 10SM
08:10
Clear
52°F / 11°C 34°F / 1°C 50% 30.09 in
(1019 mb)
N 8.1 mph
(N 13 kph)
- 10SM
07:50
Clear
52°F / 11°C 36°F / 2°C 54% 30.09 in
(1019 mb)
ENE 6.9 mph
(ENE 11 kph)
- 10SM
07:30
Clear
50°F / 10°C 36°F / 2°C 58% 30.09 in
(1019 mb)
NE 5.8 mph
(NE 9 kph)
- 10SM
07:10
Clear
48°F / 9°C 36°F / 2°C 62% 30.09 in
(1019 mb)
Calm - 10SM
06:50
Clear
46°F / 8°C 36°F / 2°C 66% 30.09 in
(1019 mb)
Calm - 10SM
06:30
Clear
45°F / 7°C 36°F / 2°C 71% 30.09 in
(1019 mb)
Calm - 10SM
06:10
Clear
43°F / 6°C 36°F / 2°C 76% 30.09 in
(1019 mb)
Calm - 10SM
05:50
Clear
41°F / 5°C 36°F / 2°C 81% 30.09 in
(1019 mb)
Calm - 10SM
05:30
Clear
37°F / 3°C 34°F / 1°C 87% 30.09 in
(1019 mb)
N 3.5 mph
(N 6 kph)
- 10SM
05:10
Clear
37°F / 3°C 34°F / 1°C 87% 30.09 in
(1019 mb)
SSW 5.8 mph
(SSW 9 kph)
- 10SM
04:50
Clear
37°F / 3°C 34°F / 1°C 87% 30.09 in
(1019 mb)
Calm - 10SM
04:30
Clear
37°F / 3°C 34°F / 1°C 87% 30.06 in
(1018 mb)
NNW 3.5 mph
(NNW 6 kph)
- 10SM
04:10
Clear
39°F / 4°C 36°F / 2°C 87% 30.09 in
(1019 mb)
Calm - 10SM
03:50
Clear
37°F / 3°C 36°F / 2°C 93% 30.09 in
(1019 mb)
NW 3.5 mph
(NW 6 kph)
- 10SM
03:30
Clear
39°F / 4°C 36°F / 2°C 87% 30.09 in
(1019 mb)
Calm - 10SM
03:10
Partly Cloudy
39°F / 4°C 36°F / 2°C 87% 30.09 in
(1019 mb)
Calm - 10SM
02:50
Mostly Cloudy
41°F / 5°C 36°F / 2°C 81% 30.09 in
(1019 mb)
Calm - 10SM
02:30
Partly Cloudy
43°F / 6°C 36°F / 2°C 76% 30.09 in
(1019 mb)
Calm - 10SM
02:10
Partly Cloudy
43°F / 6°C 36°F / 2°C 76% 30.09 in
(1019 mb)
Calm - 10SM
01:50
Overcast
43°F / 6°C 36°F / 2°C 76% 30.09 in
(1019 mb)
Calm - 10SM
01:30
Overcast
43°F / 6°C 36°F / 2°C 76% 30.09 in
(1019 mb)
Calm - 10SM
01:10
Overcast
43°F / 6°C 36°F / 2°C 76% 30.09 in
(1019 mb)
Calm - 10SM
00:50
Overcast
45°F / 7°C 36°F / 2°C 71% 30.06 in
(1018 mb)
NE 5.8 mph
(NE 9 kph)
- 10SM
00:30
Overcast
45°F / 7°C 37°F / 3°C 76% 30.06 in
(1018 mb)
NE 4.6 mph
(NE 7 kph)
- 10SM
00:10
Overcast
45°F / 7°C 37°F / 3°C 76% 30.06 in
(1018 mb)
NE 3.5 mph
(NE 6 kph)
- 10SM
Time Weather Temperature Dewpoint Humidity Pressure Winds Precip Visibility


Weather for websites

WeatherForYou.com, LLC is not responsible for any damages or problems caused by this service. Current weather conditions are obtained from the closest station including government and personal stations which may have varying degrees of accuracy. Weather forecasts are derived from the NOAA NDFD. Like all things, this site belongs to Jesus Christ... He just trusts us to maintain it. If you have any questions or comments email webmaster@weatherforyou.com

Copyright © 2016, WeatherForYou.com LLC. All rights reserved.